[[{"header":{"parameterUnit":"m.s-1","parameterCategory":1,"la1":30.2991,"la2":30.254,"lo1":-89.0895,"lo2":-89.0444,"dy":0.0017,"dx":0.0017,"nx":28,"ny":28,"refTime":"2024-02-03T09:00:00:Z","depth":0,"parameterNumber":2,"parameterNumberName":"U-component_of_WINDS"},"data":[0,0,0,0,0,0,0,0,0,0,0,0,0,0,0,0,0,0,0,0,0,0,0,0,0,0,0,0,0,0,0,0,0,0,0,0,0,0,0,0,0,0,0,0,0,0,0,0,0,0,0,0,0,0,0,0,0,0,-8.2287,-8.2288,0,-8.243,-8.2432,-8.2434,-8.2373,-8.2369,-8.2366,-8.2363,-8.2504,-8.251,-8.2517,0,0,0,0,0,0,0,0,0,0,0,0,0,-8.1956,-8.1962,-8.2287,-8.2289,-8.229,-8.243,-8.2432,-8.2434,-8.2373,-8.2369,-8.2365,-8.2361,-8.2501,-8.251,-8.2518,0,0,0,0,0,0,0,0,0,0,0,0,0,-8.2099,-8.1964,-8.2286,-8.2277,-8.2278,-8.243,-8.2432,-8.2435,-8.2374,-8.2369,-8.2364,-8.2359,-8.2499,-8.2509,-8.2519,-8.2687,0,0,-8.2551,-8.2556,0,0,0,0,0,0,0,0,-8.2091,-8.2112,-8.2277,-8.2278,-8.2279,-8.2379,-8.2367,-8.2519,-8.2376,-8.2338,-8.2363,-8.2357,-8.2466,-8.2479,-8.2517,-8.2694,-8.27,-8.2552,-8.2558,-8.2563,-8.2566,0,0,0,0,0,0,0,-8.2082,-8.2105,-8.2343,-8.2279,-8.2281,-8.2264,-8.2279,-8.2396,-8.2429,-8.234,-8.2336,-8.2355,-8.2465,-8.2507,-8.252,-8.2702,-8.2552,-8.2561,-8.2567,-8.2571,-8.3025,-8.303,0,0,0,0,0,0,-8.2072,-8.2097,-8.2339,-8.2348,-8.2171,-8.2275,-8.2291,-8.2352,-8.2427,-8.2434,-8.2359,-8.2351,-8.2492,-8.2507,-8.2524,-8.2726,-8.2563,-8.2573,-8.2579,-8.3019,-8.3026,-8.3032,0,0,0,0,0,0,-8.2065,-8.2094,-8.2333,-8.2222,-8.2251,-8.2286,-8.2354,-8.2357,-8.2399,-8.2441,-8.2446,-8.2395,-8.2488,-8.251,-8.2648,-8.273,-8.2577,-8.2587,-8.3012,-8.3021,-8.3029,-8.3131,0,0,0,0,0,0,-8.2056,-8.2092,-8.2157,-8.2224,-8.2257,-8.2455,-8.236,-8.2364,-8.2418,-8.2409,-8.2477,-8.2483,-8.2486,-8.2632,-8.2658,-8.2742,-8.2595,-8.3005,-8.3016,-8.3026,-8.312,-8.3142,-8.316,0,0,0,0,0,-8.2045,-8.2178,-8.2161,-8.219,-8.2339,-8.246,-8.2479,-8.2481,-8.2424,-8.2489,-8.2517,-8.2481,-8.2718,-8.2647,-8.2675,-8.2763,-8.2999,-8.3013,-8.3025,-8.3111,-8.3138,-8.316,0,0,0,0,0,0,-8.2118,-8.2187,-8.2168,-8.2328,-8.2389,-8.245,-8.2531,-8.2509,-8.2586,-8.2574,-8.2572,-8.2588,-8.2731,-8.2761,-8.2681,-8.293,-8.285,-8.2869,-8.2905,-8.2931,-8.295,-8.2939,-8.2604,0,0,0,0,0,-8.2153,-8.2247,-8.2302,-8.2437,-8.247,-8.2496,-8.2549,-8.2546,-8.2608,-8.2633,-8.267,-8.2731,-8.2819,-8.2877,-8.296,-8.3125,-8.3139,-8.32,-8.322,-8.3236,-8.3252,-8.3342,-8.337,-8.3075,-8.3075,-8.3074,0,0,-8.2225,-8.2275,-8.2334,-8.2454,-8.2501,-8.2597,-8.2518,-8.2623,-8.2694,-8.2648,-8.2781,-8.2812,-8.2879,-8.3032,-8.3101,-8.3061,-8.3338,-8.3253,-8.3266,-8.3273,-8.3359,-8.3387,-8.3411,-8.3083,-8.3082,-8.308,0,0,-8.2407,-8.2455,-8.2573,-8.2623,-8.2697,-8.2714,-8.2743,-8.2808,-8.2827,-8.2962,-8.2929,-8.3014,-8.3165,-8.3215,-8.326,-8.3465,-8.3434,-8.3492,-8.3596,-8.3684,-8.3707,-8.3728,-8.38,-8.3826,-8.3508,-8.3508,-8.3509,0,-8.2487,-8.2633,-8.2636,-8.2745,-8.2799,-8.2765,-8.2885,-8.2932,-8.3028,-8.3065,-8.3021,-8.3212,-8.3255,-8.3419,-8.347,-8.3507,-8.3539,-8.3483,-8.3704,-8.3725,-8.3744,-8.3813,-8.384,-8.3515,-8.3514,-8.3514,-8.3513,0,-8.2728,-8.283,-8.2916,-8.3013,-8.3077,-8.319,-8.321,-8.3274,-8.3266,-8.3288,-8.3425,-8.3477,-8.357,-8.3609,-8.3602,-8.3773,-8.3747,-8.3704,-8.3622,-8.3779,-8.3843,-8.387,-8.3524,-8.3522,-8.352,-8.3518,0,0,-8.2955,-8.3056,-8.3088,-8.3132,-8.3212,-8.329,-8.3403,-8.3497,-8.3552,-8.362,-8.3713,-8.3845,-8.3806,-8.3858,-8.3855,-8.3933,-8.4092,-8.388,-8.3882,-8.3917,-8.4284,-8.4315,-8.4345,-8.4073,-8.4078,-8.4082,-8.4278,0,-8.3142,-8.3342,-8.335,-8.3531,-8.3625,-8.3596,-8.3694,-8.3753,-8.3778,-8.386,-8.3885,-8.3978,-8.3921,-8.3952,-8.4027,-8.4056,-8.4165,-8.4043,-8.4158,-8.4163,-8.4141,-8.4379,-8.4412,-8.4594,-8.4303,-8.4308,-8.4311,0,-8.3386,-8.3466,-8.3657,-8.3726,-8.3766,-8.3854,-8.3942,-8.4022,-8.4088,-8.41,-8.416,-8.4148,-8.4262,-8.4179,-8.4336,-8.4252,-8.4301,-8.4323,-8.433,-8.4339,-8.4245,-8.4394,-8.4652,-8.4679,-8.4351,-8.4348,-8.4345,0,-8.3532,-8.3687,-8.3822,-8.3861,-8.3945,-8.4007,-8.4045,-8.4107,-8.4164,-8.4241,-8.4278,-8.4366,-8.4414,-8.4482,-8.4494,-8.4432,-8.4651,-8.4569,-8.4663,-8.4663,-8.4708,-8.4705,-8.4976,-8.4742,-8.4742,-8.4741,-8.4741,0,-8.3739,-8.3857,-8.3889,-8.3972,-8.4103,-8.4111,-8.4241,-8.4273,-8.433,-8.4417,-8.4398,-8.448,-8.4491,-8.4577,-8.4586,-8.4715,-8.4737,-8.4749,-8.4749,-8.475,-8.4748,-8.4779,-8.4766,-8.4749,-8.4747,-8.4746,-8.4744,0,-8.3923,-8.395,-8.4095,-8.4164,-8.4184,-8.4278,-8.4336,-8.4415,-8.4439,-8.455,-8.4577,-8.4613,-8.4712,-8.4732,-8.4848,-8.4855,-8.5008,-8.4997,-8.4986,-8.4984,-8.5077,-8.5068,-8.5377,-8.5418,-8.5158,-8.5161,-8.5163,0,-8.4052,-8.4143,-8.4223,-8.4282,-8.4324,-8.4418,-8.4477,-8.449,-8.4551,-8.4637,-8.4705,-8.4803,-8.4882,-8.5042,-8.5078,-8.5168,-8.5157,-8.526,-8.517,-8.5168,-8.5158,-8.5152,-8.516,-8.5276,-8.5279,-8.5281,-8.5283,0,-8.4279,-8.4288,-8.4375,-8.4468,-8.454,-8.4613,-8.4682,-8.473,-8.4752,-8.4823,-8.4926,-8.4987,-8.5109,-8.5206,-8.5296,-8.5333,-8.5312,-8.5312,-8.5338,-8.5338,-8.5328,-8.5334,-8.5031,-8.5304,-8.5301,-8.53,-8.5299,-8.5298,-8.4438,-8.4518,-8.4588,-8.4686,-8.474,-8.4806,-8.4884,-8.4919,-8.5006,-8.5107,-8.5109,-8.5222,-8.5288,-8.5408,-8.5451,-8.5538,-8.5506,-8.5544,-8.5553,-8.5562,-8.5571,-8.5316,-8.5555,-8.5554,-8.5554,-8.5553,-8.5553,0,-8.4663,-8.4708,-8.4798,-8.4897,-8.4974,-8.4952,-8.5027,-8.5093,-8.5193,-8.5258,-8.5337,-8.5456,-8.5552,-8.5597,-8.569,-8.5752,-8.5744,-8.5776,-8.577,-8.5779,-8.5595,-8.5562,-8.578,-8.578,-8.578,-8.578,-8.578,-8.578,-8.4789,-8.4923,-8.4941,-8.5102,-8.5145,-8.5257,-8.5303,-8.5363,-8.5415,-8.555,-8.563,-8.566,-8.5717,-8.5815,-8.5902,-8.5912,-8.5947,-8.5983,-8.5989,-8.5815,-8.5792,-8.577,-8.5739,-8.5991,-8.5991,-8.6166,-8.6167,-8.6169]},{"header":{"parameterUnit":"m.s-1","parameterCategory":1,"la1":30.2991,"la2":30.254,"lo1":-89.0895,"lo2":-89.0444,"dy":0.0017,"dx":0.0017,"nx":28,"ny":28,"refTime":"2024-02-03T09:00:00:Z","depth":0,"parameterNumber":3,"parameterNumberName":"V-component_of_WINDS"},"data":[0,0,0,0,0,0,0,0,0,0,0,0,0,0,0,0,0,0,0,0,0,0,0,0,0,0,0,0,0,0,0,0,0,0,0,0,0,0,0,0,0,0,0,0,0,0,0,0,0,0,0,0,0,0,0,0,0,0,1.0718,1.0719,0,1.079,1.079,1.0791,1.0826,1.0826,1.0826,1.0826,1.0899,1.0901,1.0903,0,0,0,0,0,0,0,0,0,0,0,0,0,1.0613,1.0615,1.0718,1.0719,1.072,1.0789,1.079,1.0791,1.0826,1.0826,1.0826,1.0826,1.0898,1.0901,1.0903,0,0,0,0,0,0,0,0,0,0,0,0,0,1.0669,1.0616,1.0718,1.0746,1.0749,1.0789,1.079,1.0792,1.0826,1.0826,1.0826,1.0826,1.0898,1.09,1.0903,1.0921,0,0,1.0912,1.0913,0,0,0,0,0,0,0,0,1.0666,1.0673,1.0741,1.0744,1.0748,1.0799,1.078,1.0835,1.0826,1.0797,1.0826,1.0826,1.0866,1.0871,1.0885,1.0924,1.0928,1.0912,1.0914,1.0915,1.0916,0,0,0,0,0,0,0,1.0662,1.067,1.0746,1.0742,1.0746,1.0755,1.0763,1.0791,1.083,1.08,1.0802,1.081,1.0868,1.0882,1.0887,1.0929,1.0912,1.0915,1.0917,1.0918,1.099,1.099,0,0,0,0,0,0,1.0654,1.0667,1.0744,1.0748,1.0706,1.0757,1.0766,1.0783,1.083,1.0838,1.081,1.0812,1.0877,1.0883,1.0889,1.0915,1.0915,1.0918,1.092,1.099,1.099,1.099,0,0,0,0,0,0,1.0651,1.066,1.0741,1.0708,1.0719,1.0759,1.0777,1.0784,1.0798,1.0838,1.0846,1.0817,1.0877,1.0885,1.0914,1.0918,1.0919,1.0922,1.0989,1.099,1.099,1.0966,0,0,0,0,0,0,1.0648,1.0659,1.0666,1.0708,1.0721,1.0764,1.0777,1.0785,1.0803,1.0806,1.0847,1.0854,1.0878,1.0909,1.0916,1.0922,1.0924,1.0989,1.099,1.099,1.0967,1.0966,1.0965,0,0,0,0,0,1.0644,1.0655,1.0666,1.0675,1.073,1.0764,1.0771,1.0799,1.0803,1.0811,1.0837,1.0852,1.0916,1.0912,1.092,1.0927,1.0989,1.0989,1.099,1.0967,1.0966,1.0965,0,0,0,0,0,0,1.0611,1.0661,1.0673,1.0699,1.0727,1.077,1.078,1.0796,1.0823,1.0824,1.0857,1.0866,1.0892,1.0912,1.0906,1.0948,1.0954,1.0956,1.0934,1.0933,1.0932,1.0927,1.0927,0,0,0,0,0,1.0607,1.063,1.0673,1.0691,1.0705,1.074,1.0756,1.0775,1.0805,1.0817,1.0845,1.0874,1.0901,1.0918,1.0945,1.097,1.098,1.0979,1.0978,1.0977,1.0978,1.0996,1.0996,1.0991,1.0991,1.0991,0,0,1.0598,1.0629,1.0641,1.0685,1.0709,1.0734,1.075,1.0774,1.0792,1.0821,1.085,1.0872,1.0906,1.0934,1.0947,1.0951,1.0982,1.0977,1.0976,1.0978,1.0996,1.0996,1.0997,1.0992,1.0992,1.0992,0,0,1.0595,1.062,1.0639,1.0663,1.07,1.0724,1.0729,1.077,1.0786,1.0816,1.0838,1.0861,1.0906,1.0931,1.0949,1.0958,1.0974,1.0966,1.0961,1.0977,1.0977,1.0978,1.0983,1.0984,1.0967,1.0967,1.0967,0,1.058,1.0617,1.0647,1.0671,1.069,1.0718,1.0739,1.0761,1.0804,1.0817,1.0821,1.0881,1.0906,1.094,1.0943,1.0956,1.0964,1.0962,1.0975,1.0976,1.0977,1.0982,1.0984,1.0966,1.0966,1.0967,1.0967,0,1.0597,1.0623,1.0634,1.0677,1.0697,1.0719,1.0753,1.0771,1.0789,1.0812,1.0844,1.0875,1.091,1.092,1.0936,1.0958,1.0959,1.0969,1.0976,1.0976,1.0981,1.0983,1.0965,1.0965,1.0965,1.0966,0,0,1.0574,1.0635,1.0639,1.066,1.0703,1.0724,1.0748,1.0783,1.0798,1.0828,1.085,1.0889,1.0899,1.0919,1.094,1.0954,1.0962,1.0962,1.0963,1.0962,1.0989,1.0983,1.0985,1.0972,1.0973,1.0973,1.0987,0,1.0578,1.0623,1.0652,1.0685,1.071,1.0738,1.076,1.0789,1.0813,1.0838,1.0864,1.0891,1.0901,1.0915,1.093,1.0957,1.0968,1.0957,1.0994,1.0995,1.0986,1.0987,1.098,1.0992,1.0989,1.099,1.099,0,1.0589,1.0619,1.0655,1.0699,1.0711,1.0729,1.0765,1.0789,1.0824,1.084,1.0864,1.0885,1.0913,1.0918,1.0957,1.0949,1.0966,1.0983,1.0984,1.0989,1.0993,1.0994,1.0996,1.0998,1.0993,1.0993,1.0993,0,1.0571,1.062,1.065,1.0666,1.0717,1.073,1.0752,1.0787,1.0807,1.0839,1.0852,1.0886,1.0905,1.0931,1.0961,1.0961,1.0998,1.1004,1.1013,1.1013,1.102,1.102,1.1026,1.1029,1.1029,1.1029,1.1029,0,1.0573,1.0594,1.0643,1.066,1.0686,1.0719,1.0744,1.0768,1.08,1.0823,1.0849,1.0871,1.0909,1.0936,1.0959,1.099,1.0998,1.1012,1.1019,1.1011,1.1009,1.1023,1.1024,1.103,1.103,1.1029,1.1029,0,1.0557,1.059,1.0624,1.067,1.0682,1.0699,1.074,1.0759,1.0784,1.0814,1.0823,1.0863,1.0896,1.0929,1.0973,1.0989,1.102,1.1027,1.1008,1.1012,1.102,1.1019,1.1036,1.1041,1.1039,1.1039,1.1039,0,1.0557,1.0574,1.0623,1.0642,1.0663,1.0692,1.0713,1.0747,1.0769,1.0811,1.0826,1.0861,1.0891,1.0943,1.0976,1.1011,1.102,1.1024,1.1026,1.1018,1.1022,1.1022,1.1024,1.1023,1.1023,1.1023,1.1023,0,1.0553,1.057,1.0599,1.0636,1.0661,1.0691,1.0721,1.0735,1.0775,1.0798,1.0833,1.0856,1.0903,1.0938,1.0977,1.1,1.1019,1.1022,1.1026,1.1019,1.1008,1.1016,1.1007,1.1022,1.1022,1.1022,1.1022,1.1022,1.0547,1.0565,1.0603,1.0636,1.0663,1.0692,1.0713,1.0742,1.0772,1.0813,1.0831,1.0867,1.0904,1.0958,1.0981,1.101,1.1015,1.102,1.1022,1.1023,1.1022,1.1003,1.1017,1.1017,1.1017,1.1017,1.1017,0,1.0546,1.0573,1.0603,1.0646,1.0673,1.0689,1.0725,1.0746,1.0777,1.081,1.084,1.0881,1.0917,1.0953,1.0991,1.1007,1.1017,1.1016,1.1015,1.1021,1.1015,1.1009,1.1008,1.1008,1.1008,1.1008,1.1008,1.1008,1.0549,1.0581,1.0602,1.0649,1.0676,1.0711,1.0731,1.0758,1.0785,1.083,1.086,1.0884,1.0919,1.096,1.0994,1.1004,1.1017,1.1014,1.1026,1.102,1.1021,1.1022,1.1016,1.1016,1.1016,1.103,1.103,1.103]}]]